[Date Prev][Date Next][Thread Prev][Thread Next] - [Date Index][Thread Index][Author Index]
2 Line ISS Keps 6-13
- Subject: [sarex] 2 Line ISS Keps 6-13
- From: "Dave Larsen PhD" <doc@xxxxxxxxxxx>
- Date: Thu, 13 Jun 2002 03:21:02 -0700
ISS
1 25544U 98067A 02164.23921191 .00063338 00000-0 77084-3 0 5562
2 25544 51.6371 72.7130 0005630 196.7363 299.4380 15.59908839203416
----
Via the sarex mailing list at AMSAT.ORG courtesy of AMSAT-NA.
To unsubscribe, send "unsubscribe sarex" to Majordomo@amsat.org
AMSAT Home